Tracking 25963 objects as of 13-Aug-2022
HD Live streaming from Space Station
objects crossing your sky now

SBS 3

Track SBS 3 now!
SBS 3 is classified as:


NORAD ID: 13651
Int'l Code: 1982-110B
Perigee: 35,840.6 km
Apogee: 35,937.5 km
Inclination: 14.0 °
Period: 1,441.0 minutes
Semi major axis: 42260 km
RCS: 15.8489 m2 (large)
Launch date: November 11, 1982
Source: United States (US)
Launch site: AIR FORCE EASTERN TEST RANGE (AFETR)
aabbcc
Your satellite tracking list
Your tracking list is empty




NASA's NSSDC Master Catalog

Two Line Element Set (TLE):
1 13651U 82110B   22224.54619462  .00000040  00000-0  00000+0 0  9990
2 13651  13.9787 344.8318 0011463 101.3240  92.0363  0.99932847117902
Source of the keplerian elements: AFSPC